Willard, MO

11:28 AM CST on January 17, 2017 (GMT -0600)
Springfield-Branson Regional

Weather History for KSGF - April, 2013

Change the Weather History Date:

Wednesday, April 24, 2013

  Actual Average Record
Temperature  
Mean Temperature 42 °F 58 °F  
Max Temperature 52 °F 70 °F 86 °F (1989)
Min Temperature 32 °F 47 °F 28 °F (1910)
Degree Days  
Heating Degree Days 23 8  
Month to date heating degree days 290 261  
Since 1 July heating degree days 4305 4435  
Cooling Degree Days 0 1  
Month to date cooling degree days 9 17  
Year to date cooling degree days 9 20  
Moisture  
Dew Point 31 °F    
Average Humidity 68    
Maximum Humidity 96    
Minimum Humidity 39    
Precipitation  
Precipitation 0.02 in 0.17 in 2.96 in (1947)
Month to date precipitation 3.72 3.32  
Year to date precipitation 13.83 11.93  
Snow  
Snow T in - - ()
Month to date snowfall T  
Since 1 July snowfall 11.3  
Snow Depth 0.00 in    
Sea Level Pressure  
Sea Level Pressure 30.22 in    
Wind  
Wind Speed 9 mph (NW)    
Max Wind Speed 18 mph    
Max Gust Speed 22 mph    
Visibility 10 miles    
Events Rain , Snow    
T = Trace of Precipitation, MM = Missing Value Source: NWS Daily Summary

Daily Weather History Graph

Daily Weather History Graph

Search for Another Location

Airport or City:

Trip Planner

Search our weather history database for the weather conditions in past years. The results will help you decide how hot, cold, wet, or windy it might be!

Date:

Astronomy

Apr. 24, 2013 Rise Set
Actual Time 6:26 AM CDT 7:56 PM CDT
Civil Twilight 5:59 AM CDT 8:24 PM CDT
Nautical Twilight 5:26 AM CDT 8:57 PM CDT
Astronomical Twilight 4:51 AM CDT 9:32 PM CDT
Moon 7:01 PM CDT (4/24) 5:29 AM CDT (4/24)
Length of Visible Light 14h 25m
Length of Day
13h 30m
Waxing Gibbous, 98% of the Moon is Illuminated
Apr 24
Waxing Gibbous
Apr 25
Full
May 2
Last Quarter
May 9
New
May 17
First Quarter

Hourly Weather History & Observations

Time (CDT) Temp. Windchill Dew Point Humidity Pressure Visibility Wind Dir Wind Speed Gust Speed Precip Events Conditions
12:32 AM 37.0 °F 28.1 °F 34.0 °F 89% 30.10 in 10.0 mi NNW 15.0 mph - N/A   Overcast
12:52 AM 37.0 °F 28.9 °F 34.0 °F 89% 30.11 in 10.0 mi NNW 12.7 mph - N/A   Overcast
1:44 AM 37.0 °F 29.8 °F 34.0 °F 89% 30.11 in 10.0 mi NNW 10.4 mph - N/A   Overcast
1:52 AM 37.0 °F 29.3 °F 34.0 °F 89% 30.14 in 10.0 mi NNW 11.5 mph - N/A   Overcast
2:34 AM 37.0 °F 28.9 °F 34.0 °F 89% 30.11 in 10.0 mi NW 12.7 mph - N/A   Overcast
2:52 AM 37.0 °F 28.1 °F 34.0 °F 89% 30.13 in 10.0 mi NNW 15.0 mph - N/A   Overcast
3:52 AM 37.0 °F 29.8 °F 34.0 °F 89% 30.12 in 10.0 mi NNW 10.4 mph - N/A   Overcast
4:43 AM 36.0 °F 26.3 °F 34.0 °F 93% 30.14 in 4.0 mi NW 16.1 mph 23.0 mph 0.00 in Rain Light Rain
4:52 AM 34.0 °F 24.6 °F 33.1 °F 96% 30.19 in 3.0 mi NW 13.8 mph 21.9 mph 0.02 in Snow Light Snow
5:52 AM 34.0 °F 25.0 °F 32.0 °F 92% 30.21 in 10.0 mi NW 12.7 mph - 0.00 in   Overcast
6:52 AM 34.0 °F 24.6 °F 32.0 °F 92% 30.22 in 8.0 mi NNW 13.8 mph - N/A   Overcast
7:52 AM 35.1 °F 26.4 °F 33.1 °F 92% 30.24 in 10.0 mi NNW 12.7 mph - N/A   Overcast
8:04 AM 35.1 °F 25.9 °F 32.0 °F 89% 30.22 in 10.0 mi NNW 13.8 mph - N/A   Overcast
8:52 AM 36.0 °F 27.5 °F 32.0 °F 86% 30.25 in 10.0 mi NNW 12.7 mph - N/A   Mostly Cloudy
9:17 AM 37.9 °F 30.0 °F 33.1 °F 83% 30.22 in 10.0 mi NW 12.7 mph - N/A   Mostly Cloudy
9:52 AM 37.9 °F 30.9 °F 33.1 °F 83% 30.25 in 10.0 mi NNW 10.4 mph - N/A   Mostly Cloudy
10:15 AM 41.0 °F 33.1 °F 32.0 °F 70% 30.21 in 10.0 mi NNW 15.0 mph - N/A   Scattered Clouds
10:52 AM 42.1 °F 35.2 °F 33.1 °F 70% 30.24 in 10.0 mi NW 12.7 mph - N/A   Mostly Cloudy
11:22 AM 44.1 °F 37.7 °F 32.0 °F 63% 30.23 in 10.0 mi NW 12.7 mph - N/A   Scattered Clouds
11:52 AM 44.1 °F 38.6 °F 32.0 °F 63% 30.26 in 10.0 mi NNW 10.4 mph - N/A   Clear
12:52 PM 46.9 °F - 30.9 °F 54% 30.27 in 10.0 mi NNW 11.5 mph 17.3 mph N/A   Clear
1:52 PM 48.0 °F - 30.9 °F 52% 30.26 in 10.0 mi NW 10.4 mph - N/A   Clear
2:52 PM 48.9 °F - 27.0 °F 43% 30.25 in 10.0 mi NW 5.8 mph - N/A   Clear
3:52 PM 51.1 °F - 28.9 °F 43% 30.25 in 10.0 mi WNW 12.7 mph 18.4 mph N/A   Clear
4:52 PM 51.1 °F - 28.0 °F 41% 30.25 in 10.0 mi WNW 10.4 mph - N/A   Clear
5:52 PM 51.1 °F - 28.9 °F 43% 30.25 in 10.0 mi West 4.6 mph - N/A   Clear
6:52 PM 50.0 °F - 27.0 °F 41% 30.26 in 10.0 mi West 8.1 mph - N/A   Clear
7:52 PM 46.0 °F 43.9 °F 27.0 °F 47% 30.26 in 10.0 mi West 4.6 mph - N/A   Clear
8:52 PM 39.9 °F 37.8 °F 30.0 °F 68% 30.27 in 10.0 mi SSW 3.5 mph - N/A   Clear
9:52 PM 37.0 °F 33.3 °F 28.9 °F 73% 30.30 in 10.0 mi SW 4.6 mph - N/A   Clear
10:52 PM 39.0 °F - 28.9 °F 67% 30.30 in 10.0 mi Calm Calm - N/A   Clear
11:52 PM 34.0 °F 28.8 °F 28.0 °F 79% 30.32 in 10.0 mi SSW 5.8 mph - N/A   Clear